STARLINK-2210 (47777 NORAD) Tracking and Keplerian Element Data

This shows tracking and keplerian element data for the satellite.

Feedback or suggestion? Click here.




ElementValue
Catalog47777
NameSTARLINK-2210
Epoch Orbit1786
Epoch Day170.43315901
Epoch Year2021
RAAN32.096
Inclination53.0569
Eccentricity0.0001955
Argument of Perigee96.0682
Mean Anonmoly264.053
Mean Motion15.06401515
Decay Rate7.03E-06
L11 47777U 21017BH 21170.43315901 .00000703 00000-0 66124-4 0 9993
L22 47777 53.0569 32.0960 0001955 96.0682 264.0530 15.06401515 17863

Live tracking and technical data element details for STARLINK-2210 (NORAD 47777). STARLINK-2210 can be tracked NOW for your location showing map with azimuth and elevation plus other details from your city location.

Track the satellite on the map from your city or location and see movement details for azimuth, elevation, latitude, longitude, range, height, and movement on the map or in text.







IsCatalogInMostPopularTable: catalog: 47777, numindb: 41
Update: records affected: 1



GetName: 47777 STARLINK-2210

Hit Count: updated at: Mon, 21 Jun 2021 04:15:41 GMT